Orbital Elements at Epoch 2459200.5 (2020-Dec-17.0) TDB
Reference: JPL 16 (heliocentric ecliptic J2000)
Element | Value | Uncertainty (1-sigma) | Units |
e | .07511092857534238 | 4.3844e-08 | |
a | 3.088595689466328 | 2.8332e-08 | au |
q | 2.856608399236712 | 1.3665e-07 | au |
i | 9.234843634742743 | 6.876e-06 | deg |
node | 352.2565815228243 | 2.8966e-05 | deg |
peri | 105.9356288361556 | 5.7533e-05 | deg |
M | 236.7911884832099 | 5.2763e-05 | deg |
tp | 2459879.045986337678 (2022-Oct-26.54598634) | 0.00029471 | TDB |
period | 1982.622444566603 5.43 | 2.728e-05 7.469e-08 | d yr |
n | .1815776881708284 | 2.4984e-09 | deg/d |
Q | 3.320582979695943 | 3.046e-08 | au |
|
| | Orbit Determination Parameters
Additional Information
|